[[{"header":{"parameterUnit":"m.s-1","parameterCategory":1,"la1":30.2991,"la2":30.254,"lo1":-89.0895,"lo2":-89.0444,"dy":0.0017,"dx":0.0017,"nx":28,"ny":28,"refTime":"2024-08-26T09:00:00:Z","depth":0,"parameterNumber":2,"parameterNumberName":"U-component_of_WINDS"},"data":[0,0,0,0,0,0,0,0,0,0,0,0,0,0,0,0,0,0,0,0,0,0,0,0,0,0,0,0,0,0,0,0,0,0,0,0,0,0,0,0,0,0,0,0,0,0,0,0,0,0,0,0,0,0,0,0,0,0,-3.1676,-3.1676,0,-3.1684,-3.1684,-3.1684,-3.1691,-3.1691,-3.1692,-3.1692,-3.1698,-3.1698,-3.1698,0,0,0,0,0,0,0,0,0,0,0,0,0,-3.1666,-3.1666,-3.1676,-3.1676,-3.1676,-3.1684,-3.1684,-3.1684,-3.1691,-3.1691,-3.1692,-3.1692,-3.1698,-3.1698,-3.1698,0,0,0,0,0,0,0,0,0,0,0,0,0,-3.1672,-3.1666,-3.1675,-3.1681,-3.1681,-3.1684,-3.1684,-3.1684,-3.1691,-3.1691,-3.1692,-3.1692,-3.1697,-3.1698,-3.1698,-3.1695,0,0,-3.1698,-3.1698,0,0,0,0,0,0,0,0,-3.1671,-3.1672,-3.168,-3.168,-3.1681,-3.1687,-3.1682,-3.1687,-3.1691,-3.1687,-3.1692,-3.1692,-3.1694,-3.1694,-3.1695,-3.1695,-3.1696,-3.1698,-3.1698,-3.1698,-3.1698,0,0,0,0,0,0,0,-3.1671,-3.1672,-3.1679,-3.168,-3.168,-3.1682,-3.1683,-3.1683,-3.1689,-3.1688,-3.1688,-3.1689,-3.1694,-3.1695,-3.1695,-3.1696,-3.1698,-3.1698,-3.1698,-3.1698,-3.1696,-3.1696,0,0,0,0,0,0,-3.167,-3.1671,-3.1678,-3.1679,-3.1676,-3.1682,-3.1683,-3.1685,-3.1689,-3.169,-3.1689,-3.169,-3.1695,-3.1695,-3.1696,-3.1694,-3.1698,-3.1698,-3.1698,-3.1696,-3.1696,-3.1696,0,0,0,0,0,0,-3.167,-3.167,-3.1678,-3.1675,-3.1676,-3.1682,-3.1684,-3.1685,-3.1686,-3.1691,-3.1692,-3.1689,-3.1695,-3.1695,-3.1696,-3.1694,-3.1698,-3.1698,-3.1696,-3.1696,-3.1696,-3.1689,0,0,0,0,0,0,-3.1669,-3.167,-3.1669,-3.1675,-3.1677,-3.1678,-3.1683,-3.1685,-3.1686,-3.1687,-3.1691,-3.1692,-3.1695,-3.1696,-3.1696,-3.1694,-3.1698,-3.1696,-3.1696,-3.1696,-3.169,-3.1689,-3.1688,0,0,0,0,0,-3.1669,-3.1666,-3.1669,-3.167,-3.1676,-3.1678,-3.1679,-3.1683,-3.1686,-3.1685,-3.1689,-3.1691,-3.1694,-3.1695,-3.1696,-3.1694,-3.1696,-3.1696,-3.1696,-3.169,-3.1689,-3.1688,0,0,0,0,0,0,-3.1659,-3.1667,-3.167,-3.167,-3.1673,-3.1679,-3.1678,-3.1682,-3.1684,-3.1685,-3.169,-3.1691,-3.169,-3.1692,-3.1694,-3.1693,-3.1696,-3.1696,-3.1691,-3.169,-3.169,-3.1689,-3.1698,0,0,0,0,0,-3.1657,-3.1659,-3.1666,-3.1664,-3.1666,-3.1672,-3.1673,-3.1677,-3.168,-3.1681,-3.1685,-3.1688,-3.1689,-3.169,-3.1692,-3.1691,-3.1692,-3.169,-3.1689,-3.1689,-3.1688,-3.1689,-3.1688,-3.1695,-3.1695,-3.1695,0,0,-3.1652,-3.1657,-3.1657,-3.1662,-3.1665,-3.1667,-3.1673,-3.1674,-3.1675,-3.1681,-3.1682,-3.1685,-3.1689,-3.1688,-3.1688,-3.169,-3.1687,-3.1688,-3.1688,-3.1687,-3.1688,-3.1688,-3.1687,-3.1695,-3.1695,-3.1695,0,0,-3.1644,-3.1648,-3.1647,-3.1651,-3.1656,-3.1661,-3.1661,-3.1667,-3.1669,-3.1671,-3.1676,-3.1677,-3.168,-3.1683,-3.1684,-3.168,-3.1683,-3.1681,-3.1677,-3.1677,-3.1677,-3.1676,-3.1675,-3.1674,-3.168,-3.168,-3.168,0,-3.1637,-3.164,-3.1647,-3.1648,-3.165,-3.1658,-3.1658,-3.1661,-3.1666,-3.1667,-3.167,-3.1674,-3.1677,-3.1678,-3.1678,-3.1679,-3.1679,-3.1679,-3.1676,-3.1676,-3.1675,-3.1674,-3.1674,-3.168,-3.168,-3.168,-3.168,0,-3.1631,-3.1633,-3.1632,-3.1639,-3.1641,-3.1642,-3.1649,-3.1651,-3.1655,-3.1659,-3.1661,-3.1665,-3.1668,-3.1669,-3.1672,-3.1671,-3.1672,-3.1675,-3.1678,-3.1674,-3.1673,-3.1673,-3.1679,-3.168,-3.168,-3.168,0,0,-3.1614,-3.1627,-3.1626,-3.163,-3.1637,-3.1639,-3.1641,-3.1645,-3.1647,-3.1651,-3.1652,-3.1656,-3.1659,-3.1661,-3.1665,-3.1666,-3.1663,-3.1669,-3.1669,-3.1668,-3.1663,-3.166,-3.166,-3.1666,-3.1666,-3.1666,-3.1663,0,-3.1607,-3.1611,-3.1618,-3.1619,-3.1622,-3.163,-3.1632,-3.1637,-3.1641,-3.1644,-3.1649,-3.1652,-3.1656,-3.1657,-3.1659,-3.1663,-3.1662,-3.1664,-3.1667,-3.1667,-3.1665,-3.1659,-3.1656,-3.1652,-3.1662,-3.1662,-3.1662,0,-3.1599,-3.1604,-3.1606,-3.1615,-3.1616,-3.1617,-3.1623,-3.1626,-3.1632,-3.1635,-3.1639,-3.1644,-3.1647,-3.1651,-3.1654,-3.1655,-3.1658,-3.166,-3.166,-3.166,-3.1664,-3.1658,-3.1651,-3.1651,-3.1662,-3.1662,-3.1662,0,-3.1587,-3.1594,-3.1596,-3.1599,-3.161,-3.1611,-3.1615,-3.1622,-3.1625,-3.163,-3.1632,-3.1637,-3.1639,-3.1643,-3.165,-3.1652,-3.1653,-3.1657,-3.1656,-3.1656,-3.1654,-3.1654,-3.1647,-3.1657,-3.1657,-3.1657,-3.1657,0,-3.1577,-3.1578,-3.1591,-3.1593,-3.1594,-3.1603,-3.1604,-3.161,-3.1616,-3.1619,-3.1626,-3.1628,-3.1637,-3.1641,-3.1646,-3.1649,-3.165,-3.1653,-3.1654,-3.1652,-3.1651,-3.1652,-3.1653,-3.1657,-3.1657,-3.1657,-3.1657,0,-3.1563,-3.1572,-3.1575,-3.1586,-3.1589,-3.159,-3.1599,-3.1601,-3.1607,-3.161,-3.1612,-3.1621,-3.1626,-3.1634,-3.164,-3.1644,-3.1645,-3.1648,-3.1643,-3.1644,-3.1642,-3.1642,-3.1635,-3.1635,-3.1645,-3.1645,-3.1645,0,-3.1556,-3.1557,-3.1569,-3.1572,-3.1577,-3.1581,-3.1584,-3.1594,-3.1597,-3.1606,-3.1607,-3.1613,-3.1618,-3.1625,-3.1632,-3.1638,-3.164,-3.1638,-3.1641,-3.1639,-3.164,-3.164,-3.164,-3.1636,-3.1636,-3.1636,-3.1636,0,-3.1543,-3.1548,-3.1553,-3.1561,-3.1565,-3.1571,-3.1577,-3.1579,-3.159,-3.1594,-3.1599,-3.1603,-3.1612,-3.1617,-3.1624,-3.1629,-3.1634,-3.1635,-3.1635,-3.1632,-3.163,-3.1631,-3.1641,-3.1635,-3.1635,-3.1635,-3.1635,-3.1635,-3.1532,-3.1534,-3.1543,-3.1549,-3.1555,-3.1562,-3.1564,-3.1572,-3.1577,-3.1585,-3.1591,-3.1596,-3.1604,-3.1614,-3.1619,-3.1624,-3.1626,-3.1626,-3.1626,-3.1625,-3.1625,-3.163,-3.1625,-3.1625,-3.1625,-3.1625,-3.1625,0,-3.1519,-3.1526,-3.1532,-3.1541,-3.1546,-3.1553,-3.1561,-3.1564,-3.1569,-3.1577,-3.1582,-3.159,-3.1596,-3.1605,-3.1612,-3.1614,-3.1617,-3.1615,-3.1615,-3.1616,-3.1622,-3.1621,-3.1613,-3.1613,-3.1613,-3.1613,-3.1613,-3.1613,-3.1513,-3.1517,-3.1523,-3.1531,-3.1538,-3.1544,-3.1548,-3.1554,-3.1561,-3.1569,-3.1574,-3.1581,-3.1589,-3.1597,-3.1604,-3.1606,-3.1608,-3.1606,-3.1609,-3.1614,-3.1615,-3.1616,-3.1616,-3.1607,-3.1607,-3.1603,-3.1603,-3.1603]},{"header":{"parameterUnit":"m.s-1","parameterCategory":1,"la1":30.2991,"la2":30.254,"lo1":-89.0895,"lo2":-89.0444,"dy":0.0017,"dx":0.0017,"nx":28,"ny":28,"refTime":"2024-08-26T09:00:00:Z","depth":0,"parameterNumber":3,"parameterNumberName":"V-component_of_WINDS"},"data":[0,0,0,0,0,0,0,0,0,0,0,0,0,0,0,0,0,0,0,0,0,0,0,0,0,0,0,0,0,0,0,0,0,0,0,0,0,0,0,0,0,0,0,0,0,0,0,0,0,0,0,0,0,0,0,0,0,0,3.7587,3.7588,0,3.7671,3.7672,3.7673,3.769,3.7689,3.7689,3.7688,3.7768,3.7771,3.7774,0,0,0,0,0,0,0,0,0,0,0,0,0,3.7437,3.744,3.7587,3.7588,3.7589,3.7671,3.7672,3.7673,3.769,3.7689,3.7689,3.7688,3.7767,3.7771,3.7774,0,0,0,0,0,0,0,0,0,0,0,0,0,3.751,3.7441,3.7587,3.7608,3.7611,3.7671,3.7672,3.7673,3.769,3.7689,3.7688,3.7687,3.7766,3.777,3.7774,3.7818,0,0,3.7787,3.7789,0,0,0,0,0,0,0,0,3.7506,3.7515,3.7604,3.7607,3.761,3.7669,3.7649,3.7722,3.769,3.766,3.7688,3.7687,3.7736,3.7742,3.776,3.7822,3.7825,3.7787,3.779,3.7791,3.7793,0,0,0,0,0,0,0,3.7501,3.7512,3.762,3.7605,3.7609,3.7611,3.7621,3.7663,3.7702,3.7662,3.7664,3.7674,3.7737,3.7756,3.7762,3.7826,3.7787,3.7791,3.7793,3.7795,3.7928,3.7929,0,0,0,0,0,0,3.7493,3.7507,3.7618,3.7623,3.7554,3.7615,3.7625,3.7651,3.7701,3.7708,3.7675,3.7674,3.7749,3.7757,3.7765,3.7819,3.7791,3.7795,3.7798,3.7927,3.7929,3.793,0,0,0,0,0,0,3.7489,3.7502,3.7614,3.7566,3.758,3.7618,3.7647,3.7653,3.7672,3.7711,3.7717,3.7687,3.7749,3.7759,3.7805,3.7822,3.7797,3.7801,3.7926,3.7928,3.7929,3.7928,0,0,0,0,0,0,3.7485,3.7501,3.7519,3.7566,3.7583,3.7655,3.7648,3.7655,3.768,3.768,3.7724,3.773,3.7749,3.7799,3.7809,3.7827,3.7804,3.7925,3.7927,3.7929,3.7927,3.793,3.7932,0,0,0,0,0,3.748,3.7514,3.752,3.7533,3.7606,3.7656,3.7665,3.7687,3.7681,3.7699,3.7724,3.7729,3.7819,3.7804,3.7815,3.7835,3.7924,3.7926,3.7929,3.7926,3.7929,3.7932,0,0,0,0,0,0,3.7467,3.7521,3.7528,3.7579,3.7613,3.7658,3.7682,3.769,3.7725,3.7724,3.7749,3.7758,3.7803,3.7824,3.7805,3.788,3.7871,3.7876,3.7865,3.7868,3.7871,3.7864,3.7807,0,0,0,0,0,3.747,3.7507,3.7552,3.7593,3.761,3.7643,3.7665,3.768,3.7715,3.7729,3.7757,3.7789,3.7825,3.7848,3.7883,3.793,3.794,3.795,3.7952,3.7954,3.7958,3.7984,3.7989,3.7938,3.7938,3.7938,0,0,3.7477,3.7511,3.7533,3.7591,3.7619,3.7656,3.7655,3.7693,3.772,3.7734,3.778,3.7802,3.7839,3.7886,3.7908,3.7905,3.7974,3.7957,3.7959,3.7961,3.7987,3.7992,3.7996,3.794,3.7939,3.7939,0,0,3.7508,3.7538,3.7576,3.7604,3.7647,3.7669,3.7678,3.7723,3.7738,3.7785,3.7796,3.7828,3.7889,3.7915,3.7937,3.7979,3.7985,3.7989,3.8002,3.8028,3.8032,3.8036,3.805,3.8055,3.7993,3.7993,3.7993,0,3.751,3.7568,3.7593,3.7632,3.7657,3.7673,3.7711,3.7736,3.7788,3.7804,3.78,3.7877,3.7903,3.7957,3.7967,3.7984,3.7994,3.7984,3.803,3.8033,3.8037,3.8051,3.8057,3.7993,3.7993,3.7993,3.7993,0,3.7568,3.7608,3.7633,3.7684,3.7712,3.7749,3.7779,3.7804,3.7816,3.7838,3.7885,3.7918,3.796,3.7974,3.7985,3.8029,3.8025,3.8025,3.8016,3.8042,3.8055,3.8061,3.7994,3.7994,3.7994,3.7993,0,0,3.7593,3.7659,3.7668,3.7691,3.774,3.777,3.7808,3.7851,3.7872,3.7906,3.7938,3.799,3.799,3.8014,3.8029,3.8052,3.8082,3.8049,3.805,3.8053,3.8131,3.8131,3.8137,3.8087,3.8088,3.8089,3.8128,0,3.763,3.77,3.7725,3.7782,3.7818,3.7835,3.7867,3.79,3.7922,3.7954,3.7977,3.8013,3.8011,3.8026,3.8049,3.8074,3.8098,3.8071,3.8115,3.8116,3.8104,3.8144,3.8143,3.8179,3.8133,3.8134,3.8135,0,3.7682,3.772,3.7781,3.7826,3.7842,3.7872,3.7913,3.7944,3.7981,3.7995,3.8023,3.8036,3.8075,3.8065,3.8118,3.8099,3.8118,3.8133,3.8135,3.8139,3.8127,3.8148,3.8191,3.8196,3.8144,3.8143,3.8142,0,3.7693,3.7759,3.7805,3.7825,3.7878,3.7898,3.7921,3.7957,3.7982,3.8017,3.8033,3.8072,3.8093,3.8122,3.8144,3.8135,3.8195,3.8187,3.8207,3.8206,3.8218,3.8217,3.8263,3.8231,3.8231,3.8231,3.8231,0,3.7732,3.7768,3.7811,3.7839,3.788,3.7907,3.7947,3.797,3.8003,3.8034,3.805,3.8079,3.8108,3.814,3.8158,3.8199,3.8208,3.8219,3.8224,3.8218,3.8216,3.823,3.8228,3.8233,3.8232,3.8232,3.8232,0,3.7751,3.7781,3.7832,3.7879,3.7891,3.792,3.7959,3.7986,3.8009,3.8048,3.8059,3.8094,3.8132,3.8159,3.8207,3.822,3.8264,3.8268,3.8252,3.8254,3.8272,3.827,3.8328,3.8337,3.83,3.83,3.8301,0,3.7774,3.7803,3.7853,3.7877,3.79,3.7937,3.7962,3.799,3.8015,3.806,3.8081,3.8121,3.8155,3.8216,3.8244,3.8282,3.8286,3.8304,3.8292,3.8285,3.8286,3.8284,3.8286,3.8306,3.8306,3.8306,3.8307,0,3.781,3.7823,3.786,3.7903,3.7933,3.7967,3.8001,3.8019,3.8051,3.8079,3.812,3.8146,3.8197,3.8237,3.8277,3.8298,3.8308,3.831,3.8317,3.8311,3.83,3.8306,3.8257,3.8309,3.8308,3.8308,3.8308,3.8308,3.7831,3.7858,3.7898,3.7938,3.7967,3.7999,3.8027,3.8053,3.8088,3.8133,3.8147,3.8189,3.8225,3.828,3.8303,3.8335,3.8333,3.8342,3.8345,3.8347,3.8346,3.8296,3.8342,3.8342,3.8342,3.8342,3.8342,0,3.7868,3.7895,3.7932,3.798,3.8012,3.802,3.8058,3.8083,3.8121,3.8154,3.8187,3.8234,3.8272,3.8304,3.8343,3.8363,3.8368,3.8372,3.8371,3.8375,3.8346,3.8336,3.8368,3.8368,3.8368,3.8368,3.8367,3.8367,3.7891,3.7937,3.7955,3.8014,3.804,3.8084,3.8104,3.8133,3.816,3.8212,3.8245,3.8266,3.8298,3.834,3.8375,3.8383,3.8396,3.84,3.8409,3.838,3.8377,3.8375,3.8366,3.8403,3.8403,3.8435,3.8436,3.8436]}]]